Weather History for Farmingdale, NY

Change the Weather History Date:

Sunday, December 9, 2012

  Actual Average Record
Temperature  
Mean Temperature 45 °F -  
Max Temperature 48 °F 44 °F 54 °F (1999)
Min Temperature 42 °F 31 °F 19 °F (2010)
Degree Days  
Heating Degree Days 20    
Moisture  
Dew Point 44 °F    
Average Humidity 93    
Maximum Humidity 100    
Minimum Humidity 71    
Precipitation  
Precipitation 0.13 in - - ()
Sea Level Pressure  
Sea Level Pressure 30.14 in    
Wind  
Wind Speed 5 mph (NNE)    
Max Wind Speed 12 mph    
Max Gust Speed -    
Visibility 5 miles    
Events Fog , Rain    
Averages and records for this station are not official NWS values.
T = Trace of Precipitation, MM = Missing Value Source: NWS Daily Summary

Daily Weather History Graph

Daily Weather History Graph

Search for Another Location

Airport:

Trip Planner

Search our weather history database for the weather conditions in past years. The results will help you decide how hot, cold, wet, or windy it might be!

Date:

Astronomy

Dec. 09, 2012 Rise Set
Actual Time 7:06 AM EST 4:26 PM EST
Civil Twilight 6:35 AM EST 4:56 PM EST
Nautical Twilight 6:01 AM EST 5:31 PM EST
Astronomical Twilight 5:27 AM EST 6:04 PM EST
Moon 2:35 AM EST (12/9) 1:32 PM EST (12/9)
Length of Visible Light 10h 21m
Length of Day
9h 19m
Waning Crescent, 19% of the Moon is Illuminated
Dec 9
Waning Crescent
Dec 13
New
Dec 20
First Quarter
Dec 28
Full
Jan 4
Last Quarter

Hourly Weather History & Observations

Time (EST) Temp. Windchill Dew Point Humidity Pressure Visibility Wind Dir Wind Speed Gust Speed Precip Events Conditions
12:06 AM 48.2 °F - 48.2 °F 100% 30.01 in 3.0 mi WSW 5.8 mph - 0.02 in Rain Light Rain
12:42 AM 48.2 °F - 48.2 °F 100% 30.02 in 4.0 mi WSW 4.6 mph - 0.02 in   Overcast
12:53 AM 48.9 °F - 48.0 °F 97% 30.02 in 3.0 mi WSW 3.5 mph - 0.02 in   Overcast
1:03 AM 48.2 °F - 48.2 °F 100% 30.02 in 3.0 mi SW 4.6 mph - 0.00 in Rain Light Rain
1:43 AM 48.2 °F - 46.4 °F 93% 30.02 in 3.0 mi Calm Calm - 0.00 in   Overcast
1:53 AM 48.0 °F - 46.9 °F 96% 30.03 in 3.0 mi West 3.5 mph - 0.00 in   Overcast
2:30 AM 48.2 °F - 48.2 °F 100% 30.06 in 3.0 mi Calm Calm - N/A   Overcast
2:50 AM 48.2 °F - 48.2 °F 100% 30.06 in 2.5 mi West 3.5 mph - N/A   Overcast
2:53 AM 48.9 °F - 48.0 °F 97% 30.06 in 2.5 mi WSW 3.5 mph - N/A   Overcast
3:10 AM 48.2 °F - 48.2 °F 100% 30.06 in 1.2 mi West 4.6 mph - N/A   Overcast
3:19 AM 48.2 °F - 48.2 °F 100% 30.06 in 0.5 mi West 4.6 mph - N/A Fog Fog
3:33 AM 48.2 °F - 48.2 °F 100% 30.07 in 0.2 mi WSW 3.5 mph - N/A Fog Fog
3:53 AM 48.0 °F - 46.9 °F 96% 30.07 in 0.2 mi West 4.6 mph - N/A Fog Fog
4:53 AM 46.9 °F - 46.0 °F 97% 30.10 in 0.2 mi NNE 3.5 mph - N/A Fog Fog
5:13 AM 46.4 °F 45.2 °F 46.4 °F 100% 30.11 in 0.8 mi North 3.5 mph - N/A   Overcast
5:17 AM 46.4 °F 44.3 °F 46.4 °F 100% 30.11 in 1.5 mi NNE 4.6 mph - N/A   Overcast
5:23 AM 46.4 °F 41.9 °F 46.4 °F 100% 30.12 in 3.0 mi NNE 9.2 mph - N/A   Overcast
5:53 AM 46.0 °F 43.1 °F 45.0 °F 96% 30.15 in 7.0 mi NNE 5.8 mph - N/A   Mostly Cloudy
6:03 AM 46.4 °F 43.5 °F 44.6 °F 93% 30.15 in 7.0 mi NNE 5.8 mph - N/A   Scattered Clouds
6:53 AM 45.0 °F 43.5 °F 44.1 °F 97% 30.17 in 5.0 mi NNE 3.5 mph - N/A   Clear
7:53 AM 46.9 °F - 44.1 °F 90% 30.20 in 8.0 mi North 5.8 mph - N/A   Overcast
8:23 AM 46.4 °F 41.5 °F 42.8 °F 87% 30.21 in 10.0 mi North 10.4 mph - N/A   Mostly Cloudy
8:53 AM 46.0 °F 41.4 °F 42.1 °F 86% 30.22 in 10.0 mi NNE 9.2 mph - N/A   Scattered Clouds
9:14 AM 46.4 °F 42.4 °F 42.8 °F 87% 30.24 in 10.0 mi North 8.1 mph - N/A   Mostly Cloudy
9:50 AM 46.4 °F 42.4 °F 39.2 °F 76% 30.24 in 10.0 mi NE 8.1 mph - N/A   Overcast
9:53 AM 46.0 °F 41.4 °F 39.0 °F 76% 30.24 in 10.0 mi NE 9.2 mph - N/A   Overcast
10:53 AM 45.0 °F 39.7 °F 36.0 °F 71% 30.24 in 10.0 mi North 10.4 mph - 0.00 in Rain Light Rain
11:53 AM 44.1 °F 39.0 °F 36.0 °F 73% 30.23 in 10.0 mi NNE 9.2 mph - 0.00 in Rain Light Rain
12:53 PM 43.0 °F 38.8 °F 37.9 °F 82% 30.22 in 10.0 mi NNE 6.9 mph - 0.01 in Rain Light Rain
1:53 PM 43.0 °F 40.3 °F 37.9 °F 82% 30.21 in 10.0 mi NE 4.6 mph - 0.00 in   Overcast
2:53 PM 42.1 °F 38.4 °F 39.0 °F 89% 30.22 in 6.0 mi NNE 5.8 mph - 0.02 in Rain Light Rain
3:53 PM 42.1 °F 37.7 °F 39.0 °F 89% 30.21 in 10.0 mi NE 6.9 mph - 0.00 in   Overcast
4:22 PM 42.8 °F 38.6 °F 39.2 °F 87% 30.21 in 6.0 mi NE 6.9 mph - 0.00 in Rain Light Rain
5:53 PM 43.0 °F 38.2 °F 41.0 °F 93% 30.20 in 3.0 mi ENE 8.1 mph - 0.02 in Rain Light Rain
6:12 PM 42.8 °F 39.3 °F 41.0 °F 93% 30.21 in 5.0 mi NE 5.8 mph - 0.01 in Rain Light Rain
6:32 PM 42.8 °F 39.3 °F 41.0 °F 93% 30.20 in 5.0 mi ENE 5.8 mph - 0.01 in Rain Light Rain
6:44 PM 42.8 °F 39.3 °F 41.0 °F 93% 30.19 in 2.5 mi ENE 5.8 mph - 0.02 in Rain Light Rain
6:53 PM 43.0 °F 39.5 °F 42.1 °F 97% 30.19 in 2.5 mi NE 5.8 mph - 0.02 in Rain Light Rain
7:02 PM 42.8 °F 39.3 °F 42.8 °F 100% 30.19 in 2.5 mi ENE 5.8 mph - 0.00 in Rain Light Rain
7:29 PM 44.6 °F 39.2 °F 42.8 °F 93% 30.18 in 3.0 mi East 10.4 mph - 0.00 in Rain Light Rain
7:53 PM 44.1 °F 38.1 °F 43.0 °F 96% 30.17 in 3.0 mi East 11.5 mph - 0.00 in Rain Light Rain
8:53 PM 43.0 °F 37.7 °F 42.1 °F 97% 30.15 in 4.0 mi ENE 9.2 mph - 0.00 in Rain Light Rain
9:53 PM 43.0 °F 37.7 °F 42.1 °F 97% 30.09 in 8.0 mi East 9.2 mph - 0.01 in Rain Light Rain
10:45 PM 44.6 °F 40.7 °F 44.6 °F 100% 30.06 in 4.0 mi ENE 6.9 mph - 0.01 in Rain Light Rain
10:53 PM 45.0 °F 40.6 °F 44.1 °F 97% 30.05 in 3.0 mi East 8.1 mph - 0.02 in Rain Light Rain
11:53 PM 48.9 °F - 48.0 °F 97% 30.02 in 5.0 mi ENE 6.9 mph - 0.01 in Rain Light Rain